Flag for U.S.A. Weather past 2 weeks in Grand Prairie, Texas, U.S.A.

Now
95 °F

Sunny.


Feels Like: 96 °F
Forecast: 72 / 96 °F
Wind: 8 mph from East

Location: Grand Prairie Municipal Airport

Current Time: Aug 27, 2015 at 5:20:59 PM

Latest Report: Aug 27, 2015 at 4:50 PM


Visibility: 10 mi

Pressure: 30.00 "Hg

Humidity: 34%

Dew point: 63 °F

Location of Grand PrairieLocation

Historic Weather in Grand Prairie — Graph

°F

Grand Prairie temperature yesterday

Maximum temperature yesterday: 93 °F (at 2:50 PM)
Minimum temperature yesterday: 74 °F (at 5:55 AM)
Average temperature yesterday: 82 °F

Past Weeks' High & Low Weather Summary

 TemperatureHumidityPressure
High99 °F (Aug 12, 4:50 PM)100% (Aug 20, 10:55 PM)30.17 "Hg (Aug 20, 10:55 PM)
Low66 °F (Aug 20, 3:35 AM)28% (Aug 26, 4:50 PM)29.72 "Hg (Aug 18, 6:50 PM)
Average83 °F61%29.99 "Hg
* Reported Aug 12 2:50 PM — Aug 27 2:50 PM, Grand Prairie, Weather by CustomWeather, © 2015

Note: Actual official high and low records may vary slightly from our data, if they occured in-between our weather recording intervals... More about our weather records

Advertising

Grand Prairie weather history for previous 24 hours

 ConditionsComfort  
Time TempWeatherWind HumidityBarometerVisibility
2:50 PM
Thu, Aug 27
95 °FSunny.No wind34%30.03 "Hg10 mi
1:50 PM91 °FSunny.No wind41%30.06 "Hg10 mi
12:50 PM91 °FSunny.No wind38%30.08 "Hg10 mi
11:50 AM86 °FSunny.9 mph49%30.09 "Hg10 mi
10:50 AM86 °FSunny.7 mph49%30.10 "Hg10 mi
9:50 AM81 °FSunny.9 mph58%30.10 "Hg10 mi
8:50 AM77 °FSunny.9 mph57%30.10 "Hg10 mi
7:50 AM73 °FClear.9 mph65%30.08 "Hg10 mi
6:50 AM73 °FClear.No wind65%30.08 "Hg10 mi
6:35 AM73 °FClear.6 mph63%30.08 "Hg10 mi
6:15 AM73 °FClear.5 mph63%30.07 "Hg10 mi
5:55 AM73 °FClear.3 mph64%30.07 "Hg10 mi
5:35 AM74 °FClear.3 mph63%30.07 "Hg10 mi
5:15 AM74 °FClear.5 mph62%30.07 "Hg10 mi
4:55 AM74 °FClear.6 mph62%30.07 "Hg10 mi
4:35 AM74 °FClear.6 mph62%30.07 "Hg10 mi
4:15 AM74 °FClear.3 mph62%30.07 "Hg10 mi
3:55 AM75 °FClear.3 mph58%30.06 "Hg10 mi
3:35 AM76 °FClear.5 mph57%30.07 "Hg10 mi
3:15 AM76 °FClear.3 mph56%30.07 "Hg10 mi
2:55 AM76 °FClear.5 mph56%30.07 "Hg10 mi
2:15 AM78 °FClear.5 mph54%30.08 "Hg10 mi
1:55 AM79 °FClear.3 mph53%30.08 "Hg10 mi
1:35 AM79 °FClear.No wind53%30.08 "Hg10 mi
1:15 AM79 °FClear.5 mph52%30.08 "Hg10 mi
12:55 AM79 °FClear.5 mph50%30.09 "Hg10 mi
12:35 AM80 °FClear.No wind48%30.09 "Hg10 mi
12:15 AM80 °FClear.5 mph47%30.09 "Hg10 mi
11:55 PM
Wed, Aug 26
81 °FClear.3 mph45%30.09 "Hg10 mi
11:35 PM81 °FClear.3 mph45%30.10 "Hg10 mi
10:55 PM81 °FClear.3 mph43%30.10 "Hg10 mi
10:35 PM82 °FClear.3 mph41%30.10 "Hg10 mi
10:15 PM82 °FClear.3 mph40%30.09 "Hg10 mi
9:55 PM82 °FClear.5 mph38%30.09 "Hg10 mi
9:35 PM83 °FClear.3 mph35%30.09 "Hg10 mi
9:15 PM84 °FClear.5 mph32%30.08 "Hg10 mi
8:55 PM85 °FSunny.3 mph30%30.07 "Hg10 mi
8:35 PM86 °FSunny.5 mph29%30.07 "Hg10 mi
8:15 PM88 °FSunny.6 mph28%30.06 "Hg10 mi
6:50 PM91 °FSunny.6 mph28%30.06 "Hg10 mi
5:50 PM93 °FSunny.No wind28%30.07 "Hg10 mi
Weather by CustomWeather, © 2015

See weather overviewHow to use our weather pages